CW1767 Weather Reports


Display with metric or nautical units.
time (UTC)temp
F
wind
direction
speed
MPH
gust
MPH
rain 1hr
in
rain 24hr
in
rain mn
in
humidity
%
barometer
mb
20200710001837 79 276 2.0 5.0 0.00 0.00 0.00 84 1013.1
20200710001339 80 279 3.0 7.0 0.00 0.00 0.00 84 1013.3
20200710000833 80 273 4.0 7.0 0.00 0.00 0.00 84 1013.2
20200710000344 80 276 1.0 4.0 0.00 0.00 0.00 84 1013.2
20200709235827 80 276 1.0 4.0 0.00 0.00 0.00 84 1013.2
20200709235326 80 306 0.0 4.0 0.00 0.00 0.00 84 1013.3
20200709234829 80 289 2.0 4.0 0.00 0.00 0.00 83 1013.3
20200709234325 80 275 1.0 5.0 0.00 0.00 0.00 83 1013.3
20200709233834 80 310 3.0 5.0 0.00 0.00 0.00 83 1013.4
20200709233332 80 277 3.0 5.0 0.00 0.00 0.00 83 1013.5
20200709232831 80 270 2.0 4.0 0.00 0.00 0.00 83 1013.4
20200709232328 81 272 2.0 4.0 0.00 0.00 0.00 82 1013.5
20200709231834 81 266 2.0 5.0 0.00 0.00 0.00 82 1013.6
20200709231332 81 271 3.0 5.0 0.00 0.00 0.00 82 1013.4
20200709230831 81 285 3.0 5.0 0.00 0.00 0.00 81 1013.6
20200709230344 81 270 3.0 5.0 0.00 0.00 0.00 81 1013.7
20200709225842 81 280 2.0 6.0 0.00 0.00 0.00 81 1013.5
20200709225342 81 266 3.0 6.0 0.00 0.00 0.00 81 1013.5
20200709224843 81 273 1.0 6.0 0.00 0.00 0.00 81 1013.5
20200709224324 81 278 4.0 8.0 0.00 0.00 0.00 80 1013.5
20200709223824 82 277 4.0 8.0 0.00 0.00 0.00 80 1013.5
20200709223344 82 263 4.0 8.0 0.00 0.00 0.00 79 1013.6
20200709222824 82 269 3.0 7.0 0.00 0.00 0.00 79 1013.4
20200709222342 82 273 5.0 7.0 0.00 0.00 0.00 78 1013.6
20200709221843 82 280 3.0 8.0 0.00 0.00 0.00 78 1013.6
20200709221325 82 266 4.0 8.0 0.00 0.00 0.00 77 1013.7
20200709220824 83 273 2.0 5.0 0.00 0.00 0.00 78 1013.8
20200709220339 83 283 2.0 5.0 0.00 0.00 0.00 78 1013.8
20200709215839 83 300 2.0 7.0 0.00 0.00 0.00 77 1013.7
20200709215339 83 264 4.0 7.0 0.00 0.00 0.00 76 1013.8
20200709214840 83 277 2.0 6.0 0.00 0.00 0.00 77 1013.9
20200709214410 83 285 1.0 6.0 0.00 0.00 0.00 77 1013.9
20200709213833 83 285 1.0 6.0 0.00 0.00 0.00 77 1013.8
20200709213332 83 287 2.0 6.0 0.00 0.00 0.00 76 1013.8
20200709212830 83 318 1.0 4.0 0.00 0.00 0.00 74 1014.0
20200709212329 84 281 2.0 5.0 0.00 0.00 0.00 75 1014.0
20200709211834 84 280 3.0 7.0 0.00 0.00 0.00 76 1014.1
20200709211329 84 269 4.0 7.0 0.00 0.00 0.00 74 1014.1
20200709210830 84 277 5.0 8.0 0.00 0.00 0.00 73 1014.0
20200709210330 84 264 4.0 8.0 0.00 0.00 0.00 73 1014.2
20200709205826 85 287 1.0 7.0 0.00 0.00 0.00 72 1014.1
20200709205326 85 279 5.0 7.0 0.00 0.00 0.00 71 1014.0
20200709204835 85 272 3.0 6.0 0.00 0.00 0.00 70 1014.0
20200709204326 85 277 3.0 6.0 0.00 0.00 0.00 69 1014.1
20200709203828 86 274 2.0 7.0 0.00 0.00 0.00 69 1014.1
20200709203328 86 276 4.0 8.0 0.00 0.00 0.00 69 1014.0
20200709202824 85 266 5.0 8.0 0.00 0.00 0.00 72 1014.0
20200709202323 85 277 3.0 6.0 0.00 0.00 0.00 73 1014.2
20200709201826 85 280 3.0 7.0 0.00 0.00 0.00 71 1014.2
20200709201324 85 290 3.0 7.0 0.00 0.00 0.00 71 1014.1
20200709200842 85 267 2.0 7.0 0.00 0.00 0.00 73 1014.1
20200709200338 85 268 2.0 7.0 0.00 0.00 0.00 72 1014.2
20200709195843 85 275 2.0 7.0 0.00 0.00 0.00 73 1014.2
20200709195338 85 291 5.0 7.0 0.00 0.00 0.00 72 1014.2
20200709194838 85 291 3.0 7.0 0.00 0.00 0.00 72 1014.2
20200709194337 85 278 3.0 6.0 0.00 0.00 0.00 73 1014.3
20200709193837 85 299 1.0 9.0 0.00 0.00 0.00 71 1014.3
20200709193338 86 266 4.0 9.0 0.00 0.00 0.00 68 1014.2
20200709192838 86 280 4.0 10.0 0.00 0.00 0.00 69 1014.2
20200709192339 86 275 4.0 10.0 0.00 0.00 0.00 69 1014.3
20200709191841 86 299 3.0 6.0 0.00 0.00 0.00 69 1014.3
20200709191340 85 283 4.0 6.0 0.00 0.00 0.00 71 1014.3
20200709190840 85 282 1.0 7.0 0.00 0.00 0.00 70 1014.3
20200709190336 85 284 4.0 7.0 0.00 0.00 0.00 69 1014.4
20200709185834 86 275 3.0 8.0 0.00 0.00 0.00 71 1014.4
20200709185334 85 276 5.0 8.0 0.00 0.00 0.00 69 1014.4
20200709184839 86 278 3.0 8.0 0.00 0.00 0.00 70 1014.4
20200709184338 86 282 4.0 8.0 0.00 0.00 0.00 66 1014.3
20200709183841 87 284 5.0 8.0 0.00 0.00 0.00 67 1014.3
20200709183339 87 268 5.0 8.0 0.00 0.00 0.00 67 1014.3
20200709182839 86 253 3.0 6.0 0.00 0.00 0.00 70 1014.4
20200709182338 87 285 2.0 7.0 0.00 0.00 0.00 66 1014.3
20200709181841 87 306 1.0 10.0 0.00 0.00 0.00 67 1014.4
20200709181340 87 291 5.0 10.0 0.00 0.00 0.00 66 1014.4
20200709180840 86 290 2.0 6.0 0.00 0.00 0.00 68 1014.5
20200709180332 86 282 3.0 6.0 0.00 0.00 0.00 68 1014.7
20200709175828 86 285 2.0 9.0 0.00 0.00 0.00 67 1014.7
20200709175329 86 275 4.0 9.0 0.00 0.00 0.00 67 1014.7
20200709174829 86 278 4.0 7.0 0.00 0.00 0.00 67 1014.7
20200709174332 86 279 3.0 7.0 0.00 0.00 0.00 67 1014.7
20200709173832 87 281 2.0 7.0 0.00 0.00 0.00 66 1014.8
20200709173334 88 289 2.0 7.0 0.00 0.00 0.00 65 1014.7
20200709172834 88 297 3.0 7.0 0.00 0.00 0.00 63 1014.9
20200709172335 88 290 3.0 6.0 0.00 0.00 0.00 64 1015.0
20200709171836 87 341 3.0 7.0 0.00 0.00 0.00 68 1015.1
20200709171338 87 271 3.0 8.0 0.00 0.00 0.00 63 1015.1
20200709170836 86 304 4.0 8.0 0.00 0.00 0.00 67 1015.1
20200709170327 86 286 4.0 8.0 0.00 0.00 0.00 66 1015.1
20200709165826 87 263 3.0 6.0 0.00 0.00 0.00 66 1015.0
20200709165344 86 264 2.0 6.0 0.00 0.00 0.00 66 1015.0
20200709164827 86 288 1.0 8.0 0.00 0.00 0.00 66 1015.0
20200709164328 87 283 4.0 8.0 0.00 0.00 0.00 66 1014.9
20200709163832 87 276 3.0 9.0 0.00 0.00 0.00 67 1014.9
20200709163333 87 245 4.0 8.0 0.00 0.00 0.00 68 1015.0
20200709162832 87 274 3.0 8.0 0.00 0.00 0.00 69 1015.0
20200709162333 86 297 2.0 8.0 0.00 0.00 0.00 69 1014.9
20200709161835 86 292 3.0 8.0 0.00 0.00 0.00 71 1014.9
20200709161335 85 268 3.0 7.0 0.00 0.00 0.00 71 1015.1
20200709160833 85 286 3.0 7.0 0.00 0.00 0.00 68 1015.2
20200709160345 86 288 3.0 7.0 0.00 0.00 0.00 70 1015.1
20200709155844 85 277 3.0 7.0 0.00 0.00 0.00 70 1015.1
20200709155332 85 292 3.0 7.0 0.00 0.00 0.00 72 1015.1
20200709154828 85 274 4.0 7.0 0.00 0.00 0.00 72 1015.2
20200709154345 85 278 2.0 6.0 0.00 0.00 0.00 71 1015.2
20200709153827 85 284 3.0 7.0 0.00 0.00 0.00 71 1015.2
20200709153331 86 276 4.0 5.0 0.00 0.00 0.00 69 1015.2
20200709152829 86 290 1.0 7.0 0.00 0.00 0.00 72 1015.1
20200709152327 85 280 4.0 6.0 0.00 0.00 0.00 74 1015.1
20200709151828 85 262 2.0 6.0 0.00 0.00 0.00 75 1015.1
20200709151327 85 269 4.0 6.0 0.00 0.00 0.00 73 1015.2
20200709150826 84 277 2.0 7.0 0.00 0.00 0.00 73 1015.2
20200709150341 84 280 3.0 7.0 0.00 0.00 0.00 74 1015.1
20200709145839 84 260 3.0 7.0 0.00 0.00 0.00 74 1015.1
20200709145339 84 257 3.0 7.0 0.00 0.00 0.00 78 1015.1
20200709144840 84 285 4.0 7.0 0.00 0.00 0.00 75 1015.3
20200709144337 84 268 3.0 6.0 0.00 0.00 0.00 77 1015.3
20200709143836 83 299 2.0 7.0 0.00 0.00 0.00 77 1015.3
20200709143340 83 272 4.0 7.0 0.00 0.00 0.00 77 1015.4
20200709142838 83 262 4.0 7.0 0.00 0.00 0.00 78 1015.3
20200709142342 83 269 4.0 6.0 0.00 0.00 0.00 79 1015.3
20200709141844 82 271 1.0 4.0 0.00 0.00 0.00 79 1015.3
20200709141344 83 268 0.0 3.0 0.00 0.00 0.00 81 1015.3
20200709140852 82 267 2.0 4.0 0.00 0.00 0.00 81 1015.3
20200709140332 82 271 1.0 5.0 0.00 0.00 0.00 81 1015.3
20200709135831 82 287 1.0 5.0 0.00 0.00 0.00 82 1015.4
20200709135331 82 270 2.0 6.0 0.00 0.00 0.00 84 1015.3
20200709134832 81 286 3.0 6.0 0.00 0.00 0.00 82 1015.4
20200709134330 81 268 4.0 6.0 0.00 0.00 0.00 85 1015.4
20200709133830 81 273 2.0 5.0 0.00 0.00 0.00 86 1015.4
20200709133331 80 271 1.0 6.0 0.00 0.00 0.00 86 1015.4
20200709132830 80 278 1.0 6.0 0.00 0.00 0.00 86 1015.4
20200709132329 80 280 2.0 6.0 0.00 0.00 0.00 89 1015.4
20200709131836 79 287 1.0 3.0 0.00 0.00 0.00 89 1015.4
20200709131332 79 290 2.0 3.0 0.00 0.00 0.00 89 1015.4
20200709130834 79 278 1.0 4.0 0.00 0.00 0.00 90 1015.5
20200709130345 79 270 2.0 4.0 0.00 0.00 0.00 90 1015.6
20200709125843 79 278 0.0 6.0 0.00 0.00 0.00 91 1015.5
20200709125326 78 271 2.0 3.0 0.00 0.00 0.00 93 1015.4
20200709124828 78 280 0.0 2.0 0.00 0.00 0.00 93 1015.5
20200709124327 78 277 0.0 2.0 0.00 0.00 0.00 93 1015.5
20200709123828 78 272 1.0 3.0 0.00 0.00 0.00 94 1015.5
20200709123330 77 265 0.0 3.0 0.00 0.00 0.00 94 1015.3
20200709122830 77 268 0.0 3.0 0.00 0.00 0.00 95 1015.4
20200709122328 77 276 0.0 1.0 0.00 0.00 0.00 95 1015.4
20200709121831 77 271 0.0 2.0 0.00 0.00 0.00 95 1015.4
20200709121332 77 273 0.0 1.0 0.00 0.00 0.00 95 1015.3
20200709120832 77 279 0.0 3.0 0.00 0.00 0.00 95 1015.3
20200709120342 76 275 1.0 3.0 0.00 0.00 0.00 96 1015.3
20200709115842 76 275 0.0 3.0 0.00 0.00 0.00 96 1015.3
20200709115343 76 273 0.0 2.0 0.00 0.00 0.00 96 1015.3
20200709114844 76 267 1.0 2.0 0.00 0.00 0.00 97 1015.2
20200709114341 76 274 0.0 3.0 0.00 0.00 0.00 97 1015.2
20200709113842 76 270 1.0 3.0 0.00 0.00 0.00 97 1015.2
20200709113343 76 277 0.0 3.0 0.00 0.00 0.00 97 1015.2
20200709112842 76 275 1.0 3.0 0.00 0.00 0.00 97 1015.2
20200709112342 76 276 0.0 0.0 0.00 0.00 0.00 97 1015.1
20200709111843 76 275 0.0 2.0 0.00 0.00 0.00 97 1015.1
20200709111333 75 275 0.0 2.0 0.00 0.00 0.00 98 1015.1
20200709110834 75 273 0.0 0.0 0.00 0.00 0.00 98 1015.0
20200709110332 75 273 0.0 0.0 0.00 0.00 0.00 98 1014.9
20200709105829 75 271 0.0 0.0 0.00 0.00 0.00 98 1014.9
20200709105330 75 271 0.0 0.0 0.00 0.00 0.00 98 1014.8
20200709104832 75 271 0.0 1.0 0.00 0.00 0.00 98 1014.8
20200709104330 75 271 0.0 1.0 0.00 0.00 0.00 98 1014.7
20200709103830 75 271 0.0 1.0 0.00 0.00 0.00 98 1014.7
20200709103333 75 271 0.0 1.0 0.00 0.00 0.00 98 1014.8
20200709102828 75 274 0.0 1.0 0.00 0.00 0.00 98 1014.7
20200709102330 75 278 0.0 0.0 0.00 0.00 0.00 98 1014.7
20200709101828 75 279 0.0 0.0 0.00 0.00 0.00 98 1014.7
20200709101327 75 278 0.0 0.0 0.00 0.00 0.00 98 1014.6
20200709100832 75 279 0.0 0.0 0.00 0.00 0.00 98 1014.5
20200709100339 75 279 0.0 0.0 0.00 0.00 0.00 98 1014.5
20200709095835 75 279 0.0 0.0 0.00 0.00 0.00 98 1014.5
20200709095341 75 278 0.0 0.0 0.00 0.00 0.00 98 1014.5
20200709094842 75 278 0.0 0.0 0.00 0.00 0.00 98 1014.6
20200709094343 75 278 0.0 1.0 0.00 0.00 0.00 98 1014.5
20200709093841 75 278 0.0 1.0 0.00 0.00 0.00 98 1014.5
20200709093342 75 276 0.0 1.0 0.00 0.00 0.00 98 1014.5
20200709092844 75 276 0.0 1.0 0.00 0.00 0.00 98 1014.4
20200709092342 75 276 0.0 1.0 0.00 0.00 0.00 98 1014.4
20200709091845 75 277 0.0 1.0 0.00 0.00 0.00 98 1014.5
20200709091349 75 276 0.0 1.0 0.00 0.00 0.00 98 1014.4
20200709090844 75 276 0.0 1.0 0.00 0.00 0.00 98 1014.5
20200709090339 75 276 0.0 1.0 0.00 0.00 0.00 98 1014.5
20200709085840 75 276 0.0 1.0 0.00 0.00 0.00 98 1014.4
20200709085337 75 275 0.0 1.0 0.00 0.00 0.00 98 1014.4
20200709084841 75 275 0.0 1.0 0.00 0.00 0.00 98 1014.3
20200709084341 75 275 0.0 1.0 0.00 0.00 0.00 98 1014.3
20200709083842 75 278 0.0 1.0 0.00 0.00 0.00 97 1014.3
20200709083340 75 278 0.0 1.0 0.00 0.00 0.00 97 1014.3
20200709082839 75 275 0.0 1.0 0.00 0.00 0.00 97 1014.3
20200709082338 75 277 0.0 1.0 0.00 0.00 0.00 97 1014.4
20200709081840 75 275 0.0 2.0 0.00 0.00 0.00 97 1014.4
20200709081336 75 279 0.0 2.0 0.00 0.00 0.00 97 1014.4
20200709080837 75 273 0.0 1.0 0.00 0.00 0.00 97 1014.3
20200709080333 75 277 0.0 2.0 0.00 0.00 0.00 97 1014.4
20200709075832 75 271 0.0 2.0 0.00 0.00 0.00 97 1014.3
20200709075328 75 273 0.0 2.0 0.00 0.00 0.00 97 1014.2
20200709074830 75 283 0.0 0.0 0.00 0.00 0.00 97 1014.3
20200709074330 75 283 0.0 0.0 0.00 0.00 0.00 97 1014.2
20200709073836 75 283 0.0 0.0 0.00 0.00 0.00 97 1014.3
20200709073340 74 283 0.0 0.0 0.00 0.00 0.00 97 1014.3
20200709072838 74 283 0.0 0.0 0.00 0.00 0.00 97 1014.2
20200709072339 74 283 0.0 0.0 0.00 0.00 0.00 97 1014.2
20200709071839 74 283 0.0 0.0 0.00 0.00 0.00 97 1014.2
20200709071339 74 283 0.0 0.0 0.00 0.00 0.00 97 1014.2
20200709070839 74 283 0.0 0.0 0.00 0.00 0.00 97 1014.2
20200709070333 75 283 0.0 0.0 0.00 0.00 0.00 97 1014.2
20200709065835 75 283 0.0 0.0 0.00 0.00 0.00 97 1014.3
20200709065336 75 283 0.0 0.0 0.00 0.00 0.00 97 1014.2
20200709064835 75 283 0.0 0.0 0.00 0.00 0.00 97 1014.3
20200709064334 75 283 0.0 0.0 0.00 0.00 0.00 97 1014.3
20200709063837 75 283 0.0 0.0 0.00 0.00 0.00 97 1014.2
20200709063339 75 283 0.0 0.0 0.00 0.00 0.00 97 1014.2
20200709062842 75 283 0.0 0.0 0.00 0.00 0.00 96 1014.1
20200709062342 75 283 0.0 0.0 0.00 0.00 0.00 96 1014.3
20200709061844 75 283 0.0 0.0 0.00 0.00 0.00 96 1014.2
20200709061342 75 283 0.0 0.0 0.00 0.00 0.00 96 1014.2
20200709060843 75 283 0.0 0.0 0.00 0.00 0.00 96 1014.1
20200709060337 75 283 0.0 0.0 0.00 0.00 0.00 96 1014.2
20200709055835 75 283 0.0 0.0 0.00 0.00 0.00 96 1014.0
20200709055337 75 291 0.0 0.0 0.00 0.00 0.00 96 1014.2
20200709054836 75 344 0.0 0.0 0.00 0.00 0.00 96 1014.0
20200709054336 75 344 0.0 0.0 0.00 0.00 0.00 96 1014.0
20200709053835 75 344 0.0 0.0 0.00 0.00 0.00 96 1014.0
20200709053337 75 344 0.0 0.0 0.00 0.00 0.00 96 1014.0
20200709052836 75 344 0.0 0.0 0.00 0.00 0.00 96 1014.1
20200709052341 75 344 0.0 0.0 0.00 0.00 0.00 96 1014.1
20200709051844 75 344 0.0 0.0 0.00 0.00 0.00 96 1014.1
20200709051345 75 344 0.0 0.0 0.00 0.00 0.00 96 1014.1
20200709050842 75 344 0.0 0.0 0.00 0.00 0.00 96 1014.2
20200709050336 75 344 0.0 0.0 0.00 0.00 0.00 96 1014.1
20200709045836 75 344 0.0 0.0 0.00 0.00 0.00 96 1014.1
20200709045336 75 344 0.0 0.0 0.00 0.00 0.00 96 1014.1
20200709044838 75 344 0.0 0.0 0.00 0.00 0.00 96 1014.1
20200709044338 75 344 0.0 0.0 0.00 0.00 0.00 96 1014.1
20200709043835 75 344 0.0 0.0 0.00 0.00 0.00 96 1014.3
20200709043339 75 344 0.0 0.0 0.00 0.00 0.00 95 1014.4
20200709042836 75 344 0.0 0.0 0.00 0.00 0.00 95 1014.5
20200709042336 75 344 0.0 0.0 0.00 0.00 0.00 95 1014.5
20200709041843 76 344 0.0 0.0 0.00 0.00 0.00 95 1014.6
20200709041324 76 344 0.0 0.0 0.00 0.00 0.00 95 1014.7
20200709040825 76 349 0.0 0.0 0.00 0.00 0.00 95 1014.8
20200709040339 76 349 0.0 0.0 0.00 0.00 0.00 95 1014.7
20200709035836 76 349 0.0 0.0 0.00 0.00 0.00 95 1014.8
20200709035339 76 349 0.0 0.0 0.00 0.00 0.00 95 1014.8
20200709034842 76 349 0.0 0.0 0.00 0.00 0.00 95 1015.0
20200709034339 76 349 0.0 0.0 0.00 0.00 0.00 95 1015.1
20200709033838 76 349 0.0 0.0 0.00 0.00 0.00 95 1015.0
20200709033340 76 349 0.0 0.0 0.00 0.00 0.00 94 1015.1
20200709032838 76 349 0.0 0.0 0.00 0.00 0.00 94 1015.1
20200709032338 76 349 0.0 0.0 0.00 0.00 0.00 94 1015.1
20200709031838 76 349 0.0 0.0 0.00 0.00 0.00 94 1015.0
20200709031340 76 349 0.0 0.0 0.00 0.00 0.00 94 1015.1
20200709030840 76 349 0.0 0.0 0.00 0.00 0.00 94 1015.0
20200709030334 76 349 0.0 0.0 0.00 0.00 0.00 94 1015.1
20200709025833 76 349 0.0 0.0 0.00 0.00 0.00 93 1015.1
20200709025351 76 349 0.0 0.0 0.00 0.00 0.00 93 1015.1
20200709024833 76 349 0.0 0.0 0.00 0.00 0.00 93 1015.2
20200709024332 76 349 0.0 0.0 0.00 0.00 0.00 93 1015.1
20200709023833 76 342 0.0 0.0 0.00 0.00 0.00 93 1015.1
20200709023334 77 337 0.0 0.0 0.00 0.00 0.00 92 1015.2
20200709022836 77 337 0.0 0.0 0.00 0.00 0.00 92 1015.1
20200709022332 77 337 0.0 0.0 0.00 0.00 0.00 92 1015.2
20200709021834 77 349 0.0 0.0 0.00 0.00 0.00 92 1015.2
20200709021333 77 337 0.0 0.0 0.00 0.00 0.00 91 1015.2
20200709020836 77 337 0.0 0.0 0.00 0.00 0.00 91 1015.3
20200709020333 77 329 0.0 0.0 0.00 0.00 0.00 91 1015.3
20200709015828 77 339 0.0 0.0 0.00 0.00 0.00 90 1015.4
20200709015327 77 333 0.0 0.0 0.00 0.00 0.00 90 1015.4
20200709014828 77 333 0.0 0.0 0.00 0.00 0.00 89 1015.3
20200709014327 77 333 0.0 0.0 0.00 0.00 0.00 89 1015.2
20200709013827 78 333 0.0 0.0 0.00 0.00 0.00 89 1015.3
20200709013328 78 333 0.0 0.0 0.00 0.00 0.00 88 1015.2
20200709012830 78 333 0.0 0.0 0.00 0.00 0.00 88 1015.1
20200709012328 78 343 0.0 0.0 0.00 0.00 0.00 88 1014.9
20200709011826 78 347 0.0 0.0 0.00 0.00 0.00 87 1014.9
20200709011325 78 332 0.0 0.0 0.00 0.00 0.00 87 1014.9
20200709010843 78 341 0.0 0.0 0.00 0.00 0.00 86 1014.8
20200709010346 78 341 0.0 0.0 0.00 0.00 0.00 85 1014.8
20200709005901 78 341 0.0 0.0 0.00 0.00 0.00 85 1014.8
20200709005337 79 341 0.0 0.0 0.00 0.00 0.00 85 1014.7
20200709004834 79 341 0.0 0.0 0.00 0.00 0.00 84 1014.6
20200709004337 79 341 0.0 0.0 0.00 0.00 0.00 84 1014.6
20200709003838 79 343 0.0 0.0 0.00 0.00 0.00 83 1014.6
20200709003338 79 344 0.0 0.0 0.00 0.00 0.00 82 1014.7
20200709002837 79 344 0.0 0.0 0.00 0.00 0.00 81 1014.6
20200709002337 80 344 0.0 0.0 0.00 0.00 0.00 80 1014.6